Weather observations for the past three days for
Raleigh / Durham, Raleigh-Durham International Airport
Imperial (Metric)
Date Time (edt) Wind (mph) Vis. (mi.) Weather Sky Cond. Temperature (ºF) Relative Humidity Wind Chill (°F) Heat Index (°F) Pressure Precipitation (in)
Air Dwpt 6 hour altimeter (in) sea level (mb) 1 hr 3 hr 6 hr
Max. Min.
19 14:51 SE 7 10.00 Mostly Cloudy FEW014 SCT026CB BKN090 BKN130 BKN250 82.9 75 77% 90 30.08 1017.9 0.03
19 13:51 SE 9 10.00 Mostly Cloudy FEW012 SCT025CB BKN090 BKN250 81 73 87.1 75.9 77% 86 30.09 1018.4
19 12:51 E 6 10.00 Mostly Cloudy SCT024CB SCT045 BKN140 BKN250 84 72 67% 90 30.1 1018.7
19 11:51 E 9 10.00 Mostly Cloudy SCT022TCU BKN045 BKN140 BKN250 84 72 67% 90 30.1 1018.8
19 10:51 E 6 10.00 Mostly Cloudy SCT015TCU BKN045 BKN140 BKN250 82 73 74% 87 30.1 1018.6
19 09:51 N 5 10.00 Mostly Cloudy BKN011 BKN035 BKN160 BKN250 80.1 73 79% 84 30.1 1018.7
19 08:51 NE 6 10.00 Overcast BKN008 BKN020 BKN050 BKN160 OVC250 78.1 73 85% 81 30.09 1018.6
19 07:51 N 5 9.00 Overcast BKN007 BKN022 BKN180 OVC250 77 73 77 73.9 88% 78 30.08 1018.1
19 06:51 NE 3 8.00 Mostly Cloudy FEW004 FEW033 BKN170 BKN250 75 72 90% 74 30.06 1017.4
19 05:51 NE 3 6.00 Fog/Mist FEW003 BKN005 BKN250 75 72 90% 74 30.03 1016.4
19 04:51 Calm 3.00 Fog/Mist BKN004 OVC010 75 73 94% 73 30.01 1015.8
19 03:51 Calm 5.00 Fog/Mist OVC003 75 73 94% 73 30.01 1015.6
19 02:51 Calm 8.00 Overcast OVC004 73.9 72 94% 30.01 1015.7
19 01:51 Calm 10.00 Overcast FEW004 BKN019 BKN090 OVC250 73.9 72 77 73.9 94% 30.02 1016.1 0.14
19 00:51 SW 6 10.00 Overcast FEW004 BKN014 OVC250 75 72 90% 74 30.03 1016.3
18 23:51 SE 5 10.00 Overcast FEW004 SCT044 BKN110 OVC250 75.9 73 91% 76 30.03 1016.2
18 22:51 Calm 10.00 Overcast FEW004 SCT026 BKN038 BKN130 OVC200 75.9 73 91% 76 30.02 1016.0 0.14
18 21:51 Calm 7.00 Overcast FEW004 SCT030 BKN120 OVC200 75.9 73 91% 76 30.01 1015.7 0.09
18 20:51 Calm 5.00 Light Rain Fog/Mist FEW004 BKN030CB BKN075 BKN250 75.9 73.9 94% 75 30 1015.4 0.05
18 19:51 Vrbl 5 7.00 Mostly Cloudy FEW010 FEW035 BKN075 BKN250 77 73 95 73 88% 78 29.97 1014.3 0.32
18 18:51 NE 5 7.00 Light Rain FEW010 FEW035 BKN075 BKN250 75.9 73 91% 76 29.92 1012.6 0.02
18 17:51 Calm 7.00 Light Rain FEW035 SCT060 BKN120 OVC250 75.9 72 88% 76 29.92 1012.8 0.02
18 16:51 SE 3 3.00 Thunderstorm Rain Fog/Mist FEW010 SCT035CB BKN060 BKN250 75 70 84% 75 29.92 1012.5 0.28 0.28
18 15:51 NW 12 G 25 10.00 Thunderstorm FEW010 BKN035CB BKN250 79 70 74% 82 29.95 1013.5
18 14:51 W 7 G 18 10.00 Thunderstorm SCT035CB BKN250 93.9 73.9 52% 104 29.92 1012.7
18 13:51 SW 7 G 16 10.00 Mostly Cloudy SCT035CB BKN250 93.9 75.9 93.9 78.1 56% 107 29.94 1013.2
18 12:51 W 8 10.00 Mostly Cloudy SCT028 SCT190 BKN250 90 75 62% 100 29.96 1013.7
18 11:51 SW 7 10.00 Mostly Cloudy FEW018 SCT190 BKN250 87.1 75 67% 97 29.96 1014.0
18 10:51 SW 8 10.00 Mostly Cloudy BKN015 BKN200 82.9 73.9 74% 89 29.97 1014.3
18 09:51 SW 9 10.00 Overcast BKN012 OVC120 80.1 73 79% 84 29.98 1014.6
18 08:51 SW 13 10.00 Overcast BKN012 OVC150 80.1 73 79% 84 29.96 1014.1
18 07:51 SW 9 10.00 Overcast BKN010 OVC085 78.1 72 79 77 82% 80 29.97 1014.1
18 06:51 SW 13 10.00 Mostly Cloudy BKN011 BKN085 BKN120 BKN250 77 72 85% 78 29.96 1013.9
18 05:51 SW 9 10.00 Mostly Cloudy FEW012 BKN130 BKN250 77 72 85% 78 29.94 1013.1
18 04:51 SW 12 10.00 Mostly Cloudy FEW055 BKN150 BKN250 78.1 71.1 79% 80 29.94 1013.1
18 03:51 S 10 10.00 Mostly Cloudy FEW055 BKN150 BKN250 78.1 71.1 79% 80 29.94 1013.0
18 02:51 SE 9 10.00 Mostly Cloudy FEW060 FEW160 BKN250 78.1 69.1 74% 80 29.93 1012.8
18 01:51 E 9 10.00 Mostly Cloudy FEW029 SCT160 BKN220 79 70 88 79 74% 82 29.95 1013.6
18 00:51 N 12 G 23 10.00 Overcast BKN025 OVC060 82.9 72 70% 88 29.98 1014.5
17 23:51 SW 15 G 24 10.00 Mostly Cloudy FEW050 SCT170 BKN250 82 71.1 69% 86 29.95 1013.4
17 22:51 SW 15 G 26 10.00 Mostly Cloudy FEW045 BKN250 84.9 73.9 70% 92 29.94 1013.2
17 21:51 S 7 10.00 Mostly Cloudy FEW045 BKN250 84.9 75 72% 93 29.93 1012.8
17 20:51 S 8 10.00 Mostly Cloudy FEW045 BKN250 86 75 70% 95 29.92 1012.5
17 19:51 S 10 10.00 Mostly Cloudy FEW045 BKN250 88 75 97 88 66% 98 29.9 1011.9
17 18:51 S 16 G 30 10.00 Mostly Cloudy FEW045 BKN250 90 73.9 59% 99 29.87 1011.0
17 17:51 S 12 10.00 Mostly Cloudy FEW045 BKN250 93 75 56% 104 29.86 1010.7
17 16:51 SW 15 G 21 10.00 Mostly Cloudy FEW045 SCT120 BKN250 93 73.9 54% 103 29.88 1011.0
17 15:51 SW 12 G 21 10.00 Mostly Cloudy SCT040 SCT120 BKN250 95 73.9 51% 106 29.91 1012.0
17 14:51 SW 14 G 20 10.00 Mostly Cloudy SCT040TCU SCT120 BKN250 97 75.9 51% 111 29.92 1012.6
17 13:51 Vrbl 6 10.00 Mostly Cloudy SCT038TCU BKN250 93.9 75 95 80.1 54% 106 29.94 1013.0
17 12:51 Vrbl 3 10.00 Mostly Cloudy SCT036 BKN250 91 73.9 57% 101 29.94 1013.4
17 11:51 W 9 10.00 Mostly Cloudy SCT035 BKN250 91.9 75 58% 103 29.96 1013.8
17 10:51 S 9 10.00 Mostly Cloudy FEW025 FEW080 FEW180 BKN250 89.1 75 63% 99 29.97 1014.2
17 09:51 SW 8 10.00 Partly Cloudy FEW022 FEW180 SCT250 86 73.9 67% 94 29.98 1014.7
17 08:51 SW 9 10.00 Mostly Cloudy FEW015 FEW070 SCT180 BKN250 82 73 74% 87 30 1015.1
17 07:51 SW 10 10.00 Mostly Cloudy FEW012 BKN180 BKN250 80.1 73 81 78.1 79% 84 30 1015.1
17 06:51 SW 13 10.00 Mostly Cloudy FEW010 FEW060 BKN180 BKN250 78.1 72 82% 80 29.98 1014.4
17 05:51 W 3 10.00 Mostly Cloudy BKN180 BKN250 79 71.1 77% 82 29.95 1013.7
17 04:51 SW 12 10.00 Mostly Cloudy BKN170 BKN250 80.1 71.1 74% 84 29.93 1012.9
17 03:51 SW 12 10.00 Mostly Cloudy SCT220 BKN250 80.1 71.1 74% 84 29.92 1012.6
17 02:51 SW 9 10.00 Mostly Cloudy FEW160 BKN220 BKN250 80.1 71.1 74% 84 29.93 1012.9
17 01:51 SW 10 10.00 Partly Cloudy FEW160 SCT240 81 71.1 91.9 81 72% 85 29.94 1013.1
17 00:51 SW 10 10.00 Partly Cloudy FEW160 SCT240 81 72 74% 85 29.96 1013.7
16 23:51 S 10 10.00 Mostly Cloudy FEW160 BKN240 82 72 72% 87 29.97 1014.1
16 22:51 SW 8 10.00 Mostly Cloudy SCT160 BKN250 82 71.1 69% 86 29.97 1014.2
16 21:51 SW 16 10.00 Mostly Cloudy SCT150 BKN250 84 70 63% 88 29.95 1013.5
16 20:51 SW 15 G 22 10.00 Mostly Cloudy SCT060 SCT150 BKN250 88 70 55% 93 29.93 1013.0
16 19:51 SW 9 10.00 Mostly Cloudy SCT060TCU SCT150 BKN250 91.9 73 97 91.9 54% 101 29.92 1012.5
16 18:51 SW 12 10.00 Mostly Cloudy FEW045TCU FEW150 BKN250 95 73 49% 105 29.91 1012.0
16 17:51 SW 13 G 23 10.00 Mostly Cloudy FEW045 FEW150 BKN250 96.1 73 48% 106 29.9 1011.6
16 16:51 SW 14 10.00 Mostly Cloudy FEW045 FEW150 BKN250 97 75 49% 110 29.9 1011.7
16 15:51 S 12 G 21 10.00 Mostly Cloudy FEW045 FEW150 BKN250 95 75 53% 107 29.91 1012.1
Date Time (edt) Wind (mph) Vis. (mi.) Weather Sky Cond. Air Dwpt Max. Min. Relative Humidity Wind Chill (°F) Heat Index (°F) altimeter (in) sea level (mb) 1 hr 3 hr 6 hr
6 hour
Temperature (ºF) Pressure Precipitation (in)